Tracking 31027 objects as of 19-Jul-2025
HD Live streaming from Space Station
objects crossing your sky now

COSMOS 2251 DEB

Track COSMOS 2251 DEB now!
10-day predictions


NORAD ID: 40803
Int'l Code: 1993-036BWG
Perigee: 704.8 km
Apogee: 752.1 km
Inclination: 74.0 °
Period: 99.2 minutes
Semi major axis: 7099 km
RCS: Unknown
Launch date: June 16, 1993
Source: Commonwealth of Independent States (former USSR) (CIS)
Launch site: PLESETSK MISSILE AND SPACE COMPLEX (PKMTR)

Note: This is SATELLITE DEBRIS
Your satellite tracking list
DEWASAT-2
Track 1 satellite(s)




NASA's NSSDC Master Catalog

Two Line Element Set (TLE):
1 40803U 93036BWG 25199.63250786  .00000847  00000-0  21827-3 0  9991
2 40803  74.0155 329.2029 0033280 221.6361 138.2267 14.51330984566186
Source of the keplerian elements: AFSPC